Wind_Speed
52 52 52 53 53 53 54 52 51 50 46 42 43 37 39 37 24 22 22 27 26 28 27 22 22 22 19 18 17 17 16 15 16 13 14 16 15 13 14 17 20 25 27 27 32 34 41 41 39 43 39 37 39 46
50 49 51 51 52 54 53 52 52 44 38 41 38 34 36 31 22 15 29 28 25 25 23 22 22 20 18 16 16 16 15 15 14 15 15 14 13 15 19 25 28 29 30 33 31 29 31 38 41 39 41 40 39 42
43 46 49 49 50 49 48 49 48 45 46 43 36 34 36 30 14 24 32 29 23 23 21 21 19 17 15 15 14 12 14 14 17 17 15 16 17 19 22 22 24 29 29 27 31 31 28 33 38 41 40 41 41 38
47 49 46 45 46 46 44 42 45 45 38 33 27 32 20 17 17 27 25 23 21 18 19 18 17 17 16 16 12 13 13 16 15 16 17 17 17 20 20 24 24 20 21 24 29 34 31 36 37 43 42 41 42 41
49 48 43 42 42 41 46 38 41 32 27 31 23 14 12 18 24 22 24 23 18 20 18 19 17 17 17 13 14 12 10 12 14 16 17 17 19 19 22 22 20 18 19 22 20 26 24 28 36 38 46 44 47 45
45 42 41 42 42 45 43 41 25 20 18 16 11 7 17 21 20 22 20 18 21 19 18 15 17 17 15 14 12 8 7 6 7 10 12 12 12 15 17 18 17 15 14 15 16 24 27 28 31 42 47 49 49 47
41 37 40 42 39 33 20 19 15 8 17 16 14 16 11 19 23 18 18 19 20 19 19 19 18 18 16 15 13 10 9 9 8 8 9 10 10 11 15 16 15 15 11 8 7 21 25 27 26 42 44 52 37 47
35 36 36 27 19 20 12 4 7 7 7 8 13 21 22 16 15 20 21 18 18 19 20 20 18 20 18 18 17 15 14 15 13 10 10 11 10 11 12 13 13 12 10 9 9 12 11 19 24 35 47 48 51 40
36 32 26 23 18 8 7 9 9 13 16 17 18 17 14 18 21 15 14 15 18 18 18 17 18 22 20 19 18 19 19 18 16 13 12 12 11 9 11 12 12 13 12 10 10 7 7 15 22 32 44 46 40 30
21 20 23 6 6 4 6 11 15 12 10 11 13 11 6 5 8 12 15 16 17 17 18 19 22 21 21 21 19 18 17 16 15 16 13 12 14 9 10 11 11 11 13 7 9 6 4 4 17 28 33 41 57 45
19 11 7 7 8 9 12 9 3 5 5 4 3 4 5 8 9 11 12 13 15 16 18 20 23 22 22 21 21 18 16 17 17 16 15 11 15 11 12 10 10 9 9 6 6 6 7 7 12 23 23 21 25 35
3 3 5 4 1 5 7 6 3 2 0 1 3 5 6 7 8 9 11 13 14 15 17 21 24 24 23 22 21 20 21 21 17 15 16 13 17 14 14 11 10 8 6 4 2 6 8 11 15 16 21 23 26 30
5 4 8 6 4 3 3 3 2 1 1 2 4 6 7 9 10 11 11 12 13 13 16 19 23 23 23 23 22 21 23 21 18 17 13 16 19 14 14 14 14 13 9 5 1 3 4 10 16 18 18 19 21 27
1 4 4 4 5 5 5 5 5 5 6 7 9 10 11 11 12 12 12 12 13 13 15 18 20 21 22 24 26 25 26 24 20 14 17 25 16 14 16 17 17 16 13 11 9 3 5 6 9 15 24 26 23 23
1 4 5 6 7 8 8 9 9 9 10 11 13 14 14 15 15 15 15 15 15 15 13 16 18 17 20 24 23 24 25 26 19 17 18 18 17 16 17 18 18 16 16 14 14 11 8 7 11 10 16 21 20 19
4 6 7 9 10 10 10 10 11 12 13 13 14 15 17 20 20 18 18 18 18 17 21 18 17 22 26 28 26 26 28 25 20 20 16 16 17 19 19 20 19 17 17 17 18 17 15 13 10 11 12 16 18 20
6 8 9 10 10 11 11 10 9 9 10 10 10 10 8 9 12 14 18 22 24 22 23 23 21 21 24 26 30 32 28 22 23 20 18 20 24 23 23 20 20 21 23 24 23 21 19 19 16 14 13 15 19 20
7 7 9 9 10 10 9 9 9 10 10 10 8 8 8 9 10 12 12 15 16 20 25 23 23 21 24 29 33 32 30 33 28 26 26 23 24 20 19 21 24 24 23 21 19 19 20 21 21 20 20 17 20 22
7 7 10 13 14 14 14 14 13 12 11 11 11 10 9 9 9 10 10 9 8 8 8 9 16 18 16 19 16 18 29 34 30 22 20 17 17 20 22 20 19 18 18 19 19 20 21 22 21 21 21 21 21 22
8 9 10 10 11 12 15 16 16 16 14 13 11 10 10 8 7 7 6 5 6 5 3 2 3 9 8 9 9 7 9 9 7 6 10 14 11 15 16 16 15 18 17 19 21 21 23 24 22 23 24 23 23 24
8 8 9 11 12 13 15 16 16 16 15 13 12 11 10 10 9 7 5 3 2 3 4 2 0 3 4 2 3 2 5 5 6 7 9 10 5 10 17 15 12 15 22 27 29 30 30 28 24 23 25 28 28 27
8 9 7 7 12 16 15 16 18 17 14 13 14 13 11 10 10 11 10 7 5 3 1 1 1 2 2 2 4 7 7 8 6 4 3 5 7 8 11 14 16 16 18 19 21 20 19 19 20 21 20 19 21 27
7 7 10 12 11 14 16 17 19 20 15 13 13 14 12 11 10 10 9 7 6 5 5 4 5 5 5 4 4 3 3 3 3 4 6 7 9 11 13 14 14 14 15 16 17 17 18 18 17 17 18 18 18 17
8 8 10 11 14 15 17 15 15 18 19 18 17 14 13 11 10 9 10 9 8 8 9 8 7 7 6 5 5 6 6 5 5 8 8 8 8 8 8 10 12 13 14 14 15 17 19 20 20 20 20 20 20 18
8 10 11 13 14 15 17 17 17 18 19 19 19 19 15 10 11 10 9 9 9 10 10 9 8 8 7 7 7 7 7 7 7 8 8 8 7 7 6 6 7 8 9 10 10 9 11 13 16 19 21 22 22 21
10 11 12 13 13 14 15 17 19 19 17 16 18 18 17 11 10 10 10 10 9 10 10 9 9 9 10 9 9 9 8 8 8 8 8 9 9 10 10 9 9 8 7 7 6 6 6 8 11 15 18 20 21 22
9 10 12 13 14 15 15 16 18 19 19 18 18 18 16 13 12 11 11 11 10 10 10 10 10 13 13 12 12 10 9 10 11 11 11 11 11 11 12 13 13 13 12 12 9 6 8 9 5 2 4 7 11 15
10 11 12 12 13 14 16 17 18 18 19 19 18 17 15 13 13 11 10 10 11 11 11 11 11 14 15 15 15 15 16 16 15 14 13 13 12 13 14 14 15 16 17 18 17 16 16 13 12 14 12 8 9 11
10 12 12 13 15 16 17 17 16 17 19 20 18 17 16 15 14 12 10 11 12 13 13 12 12 15 16 15 14 14 15 13 13 14 13 12 13 13 13 13 14 15 17 18 19 19 19 19 18 17 16 15 14 12
11 11 12 14 16 18 17 14 13 15 17 18 18 16 16 15 14 13 13 13 13 13 13 13 14 15 14 14 14 15 15 14 17 17 15 15 15 14 14 15 16 16 16 17 18 19 21 22 22 22 21 21 20 19
12 12 13 15 16 17 15 11 12 14 16 16 16 16 15 14 14 14 13 13 13 12 12 12 13 13 12 12 13 13 14 15 17 17 16 16 16 17 19 20 21 22 21 20 19 18 17 17 18 19 21 22 22 23
13 12 12 12 14 15 14 10 10 11 13 15 15 15 15 14 13 12 12 11 11 11 11 10 12 13 11 10 11 13 15 16 17 19 19 19 18 19 19 21 22 23 23 24 24 24 25 25 24 24 23 21 21 21
12 12 11 10 11 15 9 10 7 8 10 12 13 13 14 14 12 11 10 10 10 10 10 11 11 11 10 8 10 13 14 15 15 16 17 18 19 19 19 20 21 21 21 22 22 23 22 21 21 21 21 21 22 23
Wind_Direction
297 297 295 297 296 294 294 291 290 289 287 285 283 286 287 294 279 285 278 265 260 262 258 251 226 225 229 236 246 255 254 252 264 241 229 237 234 247 266 276 284 277 270 263 251 246 237 229 231 228 226 229 230 229
299 301 303 302 298 296 296 295 291 291 285 286 282 278 288 275 271 272 255 265 258 263 260 235 220 218 229 236 242 242 255 264 240 232 235 237 247 263 274 281 283 274 269 258 251 245 235 229 224 225 221 221 223 223
295 302 305 306 302 298 295 293 293 286 289 289 277 278 280 261 250 258 257 265 257 261 241 210 212 223 231 233 231 249 263 239 219 235 244 259 275 289 291 287 287 276 266 257 248 238 231 223 218 219 216 218 221 219
299 303 301 303 303 301 298 295 293 296 285 279 267 259 257 245 252 250 260 256 256 240 207 204 211 220 220 222 237 245 243 216 220 240 257 269 281 293 286 300 300 286 267 250 244 241 241 225 215 212 214 213 218 220
297 299 298 304 301 300 296 296 303 293 284 264 258 230 223 255 235 254 259 252 236 215 199 207 211 209 210 221 232 243 232 230 244 256 267 277 288 289 296 303 301 292 272 259 253 227 222 213 213 209 210 210 216 218
297 295 300 301 300 301 291 291 279 282 269 259 254 237 235 225 239 263 247 236 210 198 207 206 205 200 202 212 229 231 199 207 244 258 258 268 284 292 306 306 304 297 292 268 257 219 209 225 225 212 209 209 214 216
300 295 298 303 301 299 290 293 270 272 273 255 229 203 266 272 259 233 212 201 198 206 211 206 202 193 204 211 218 210 216 231 266 273 261 276 287 302 320 322 308 302 288 291 265 233 229 238 214 207 206 209 212 221
297 302 302 298 291 297 277 283 322 310 293 284 266 264 264 244 230 210 194 193 211 215 211 207 200 200 208 210 213 222 232 244 259 263 261 272 287 301 330 340 325 321 292 276 259 253 243 211 214 208 202 206 208 205
304 300 297 305 290 273 316 305 290 266 258 256 243 238 224 202 189 184 193 212 221 219 214 208 207 212 213 216 223 232 242 246 249 255 258 268 275 291 330 334 351 337 328 264 256 269 254 215 219 201 203 195 190 203
325 312 303 270 308 322 241 240 269 271 264 250 233 204 165 172 195 213 221 223 222 220 216 216 218 216 217 224 228 232 236 241 248 255 256 260 268 274 299 323 337 344 340 275 237 247 217 236 186 200 205 211 216 232
328 315 324 339 315 274 260 259 187 107 103 101 136 182 203 219 225 224 222 219 218 221 226 226 227 226 225 231 237 239 239 243 245 246 254 255 264 264 269 298 316 340 347 306 233 239 206 202 206 208 209 217 226 231
330 285 272 251 223 72 75 76 73 67 143 208 218 221 223 229 233 232 233 235 234 230 229 231 233 233 231 236 243 245 248 250 251 248 251 259 265 269 263 268 288 306 339 355 259 230 217 205 211 219 226 232 228 224
304 65 47 29 13 22 8 358 339 291 291 265 245 237 238 243 249 249 249 248 247 241 235 236 238 240 240 245 249 253 255 258 258 248 247 255 257 268 260 260 268 276 287 305 272 284 259 231 225 222 217 225 238 238
40 52 14 1 359 355 338 331 314 297 282 275 266 255 248 252 249 248 247 245 245 244 239 238 239 241 243 249 253 257 258 258 257 250 231 241 249 254 261 267 270 267 267 277 274 260 251 256 244 238 226 224 225 224
3 4 338 330 332 329 325 317 308 302 296 288 282 275 268 262 257 254 250 250 247 246 245 257 248 246 250 250 252 254 260 259 254 248 244 248 249 260 274 273 266 259 258 258 259 268 279 258 254 255 232 228 231 226
342 335 331 335 333 329 323 313 304 301 300 295 290 289 276 264 253 252 255 253 245 235 238 255 253 264 255 261 270 270 273 271 262 260 250 248 256 257 275 274 263 258 258 260 266 260 259 264 274 275 252 231 238 238
341 344 344 350 352 349 341 333 331 332 326 315 298 296 300 289 285 284 269 262 250 248 250 256 256 256 265 262 270 275 270 264 252 248 263 262 262 256 265 252 254 264 274 273 267 260 260 257 264 267 265 262 244 235
359 20 16 17 23 16 12 13 2 354 342 338 333 322 310 300 293 281 277 267 269 262 244 252 259 258 260 258 264 273 266 260 252 267 263 254 254 247 241 250 264 270 267 260 256 255 257 259 260 264 266 261 249 240
49 55 67 55 45 36 32 24 14 5 0 351 343 335 321 308 302 289 281 282 287 246 204 216 231 241 247 236 230 228 233 234 249 243 242 247 246 249 254 255 246 244 248 251 251 254 258 258 264 266 265 264 262 254
86 70 51 36 29 24 25 24 22 22 20 21 21 17 10 358 337 323 316 292 280 282 326 342 230 206 203 224 218 217 223 219 230 248 252 243 240 250 248 250 251 248 252 255 257 258 262 263 258 255 259 261 262 264
57 45 41 40 31 27 26 23 20 18 22 23 19 15 15 15 13 10 17 41 84 117 138 154 275 329 312 329 102 183 248 239 242 280 286 309 314 226 252 267 262 252 257 265 270 270 271 270 265 259 252 249 246 245
51 34 28 13 9 20 19 22 21 18 19 22 20 16 18 26 33 38 39 39 52 50 47 48 154 177 184 188 217 223 248 275 289 303 296 283 275 259 250 251 260 267 267 269 268 266 260 251 243 242 245 246 247 244
33 28 24 21 20 18 23 25 26 21 23 23 20 21 25 25 32 39 41 44 52 55 54 62 75 90 97 103 96 75 46 10 342 318 306 293 283 276 271 267 263 268 275 274 267 256 250 248 243 240 240 238 231 231
40 35 24 25 32 30 31 26 25 29 31 27 23 20 25 31 34 38 41 43 60 72 74 71 69 67 64 58 45 38 32 26 21 10 347 327 315 303 291 286 285 285 282 280 277 267 258 252 249 249 243 238 239 240
39 33 34 41 41 38 36 31 27 23 23 22 19 19 23 30 34 40 50 52 57 62 62 59 57 57 58 57 55 55 51 42 33 28 18 13 5 352 334 321 312 311 307 303 295 280 264 254 250 246 245 244 240 238
44 44 44 43 43 38 33 31 30 29 24 22 21 21 26 33 40 46 64 68 67 65 61 55 56 61 63 65 64 62 56 46 43 40 37 38 41 42 39 34 25 12 356 343 335 326 309 275 254 248 247 244 240 236
49 51 49 43 35 30 29 30 29 28 27 28 27 28 29 35 40 58 69 74 72 69 64 61 62 69 69 66 66 68 72 69 63 58 54 53 54 56 56 54 50 48 46 42 40 41 41 51 71 136 187 195 202 209
51 50 46 37 28 25 26 27 27 26 28 29 31 31 32 38 47 74 74 76 72 70 72 73 72 77 77 78 81 81 80 77 76 69 60 56 50 48 49 53 58 60 60 57 55 55 60 68 74 75 82 119 163 173
48 40 32 25 21 20 21 21 23 26 28 30 31 33 37 49 62 71 72 72 76 82 85 86 87 87 86 83 81 78 76 69 68 65 60 58 57 53 55 58 59 61 64 66 67 67 68 71 73 76 83 88 91 105
41 33 24 19 20 21 23 22 23 27 31 32 35 39 44 54 62 67 71 72 78 87 92 92 86 82 82 80 77 74 73 70 64 58 53 51 52 52 49 52 54 53 55 59 63 67 71 73 72 74 77 82 88 94
35 31 21 17 21 27 29 30 30 31 32 34 42 49 50 55 62 68 73 78 83 87 94 96 93 87 82 81 82 79 77 74 73 69 63 56 50 50 52 56 59 61 60 61 61 59 58 57 61 67 75 80 85 89
30 26 25 23 19 19 32 41 39 33 34 36 40 47 51 55 60 68 73 78 84 90 95 101 99 95 91 88 90 87 81 74 67 65 65 63 61 62 64 68 66 64 64 65 65 66 64 63 64 68 73 74 75 77
25 23 17 11 9 13 20 25 51 42 43 42 38 38 41 49 56 63 72 75 77 82 92 101 104 104 101 94 87 81 74 68 66 65 64 63 62 61 63 66 68 70 71 71 70 70 72 72 74 76 79 83 85 87
Height
5742 5737 5732 5729 5725 5721 5717 5712 5709 5705 5704 5701 5699 5697 5695 5693 5691 5692 5693 5692 5693 5694 5694 5693 5694 5698 5702 5704 5706 5707 5709 5711 5712 5714 5716 5717 5719 5720 5720 5719 5719 5718 5718 5718 5718 5719 5725 5732 5736 5742 5750 5754 5761 5767
5727 5722 5717 5713 5709 5704 5700 5697 5693 5690 5688 5686 5683 5682 5683 5680 5679 5681 5683 5682 5683 5685 5686 5686 5689 5693 5697 5699 5701 5703 5705 5706 5707 5709 5711 5713 5714 5714 5714 5713 5711 5709 5708 5708 5709 5709 5714 5719 5726 5733 5739 5744 5750 5756
5715 5710 5705 5700 5694 5689 5683 5680 5677 5675 5673 5671 5669 5670 5671 5668 5669 5673 5673 5674 5675 5677 5678 5680 5685 5689 5692 5694 5696 5699 5699 5700 5703 5705 5707 5708 5708 5709 5707 5705 5702 5697 5696 5696 5697 5700 5703 5707 5715 5722 5729 5736 5743 5748
5702 5697 5692 5687 5681 5676 5671 5667 5664 5661 5657 5657 5657 5658 5659 5659 5661 5663 5664 5666 5668 5670 5673 5678 5682 5685 5687 5689 5692 5694 5694 5696 5698 5700 5701 5702 5702 5702 5699 5697 5692 5688 5686 5686 5686 5688 5692 5697 5704 5712 5720 5728 5735 5739
5688 5684 5679 5675 5670 5665 5660 5656 5653 5648 5645 5644 5646 5649 5649 5650 5653 5656 5657 5658 5661 5666 5671 5674 5677 5681 5683 5686 5688 5689 5690 5692 5694 5695 5696 5697 5696 5695 5693 5689 5685 5681 5679 5678 5677 5678 5682 5688 5696 5703 5710 5719 5725 5729
5675 5671 5668 5662 5657 5652 5648 5644 5642 5640 5638 5637 5639 5640 5642 5644 5646 5650 5650 5653 5656 5662 5667 5670 5674 5676 5679 5682 5684 5685 5687 5689 5690 5691 5691 5692 5692 5690 5686 5682 5679 5675 5672 5670 5670 5673 5677 5682 5687 5693 5700 5709 5715 5724
5663 5660 5655 5650 5646 5641 5638 5635 5634 5634 5632 5632 5632 5635 5639 5640 5641 5642 5646 5649 5654 5659 5663 5666 5669 5672 5675 5678 5680 5682 5683 5685 5686 5687 5687 5688 5687 5685 5681 5677 5674 5671 5669 5667 5667 5670 5672 5673 5676 5682 5690 5698 5710 5715
5653 5649 5645 5641 5638 5634 5632 5631 5630 5630 5629 5630 5631 5632 5633 5634 5636 5638 5642 5647 5652 5655 5658 5662 5666 5668 5671 5673 5676 5677 5679 5681 5681 5682 5683 5683 5682 5681 5678 5675 5672 5668 5666 5665 5665 5667 5667 5667 5669 5676 5681 5690 5700 5706
5644 5639 5636 5632 5631 5629 5628 5627 5626 5626 5626 5626 5627 5627 5628 5631 5634 5638 5642 5646 5648 5653 5656 5660 5662 5664 5667 5669 5671 5673 5674 5676 5677 5677 5678 5679 5678 5676 5674 5672 5669 5666 5664 5662 5662 5663 5663 5664 5667 5670 5677 5685 5692 5695
5634 5632 5631 5629 5628 5626 5626 5626 5625 5624 5624 5624 5625 5627 5628 5632 5635 5639 5641 5643 5645 5648 5652 5654 5656 5659 5662 5663 5665 5668 5669 5670 5671 5673 5673 5674 5673 5672 5671 5670 5667 5664 5661 5658 5658 5660 5661 5663 5662 5668 5675 5681 5686 5687
5631 5629 5629 5628 5627 5626 5625 5624 5624 5624 5625 5626 5627 5629 5631 5632 5634 5636 5638 5640 5642 5645 5648 5650 5652 5654 5657 5658 5658 5662 5664 5665 5665 5668 5668 5669 5668 5668 5668 5667 5665 5663 5661 5658 5657 5658 5660 5663 5666 5669 5674 5679 5684 5687
5631 5629 5628 5628 5627 5626 5626 5626 5627 5627 5627 5628 5629 5630 5631 5632 5633 5635 5636 5638 5639 5641 5643 5645 5647 5649 5651 5652 5654 5656 5657 5659 5660 5662 5662 5664 5663 5663 5664 5664 5663 5662 5660 5658 5657 5657 5658 5661 5665 5668 5671 5674 5677 5681
5631 5630 5630 5630 5630 5629 5628 5628 5628 5628 5628 5628 5629 5629 5630 5631 5632 5632 5633 5634 5636 5637 5639 5640 5642 5644 5646 5648 5649 5651 5651 5653 5655 5656 5658 5658 5656 5658 5659 5660 5660 5659 5658 5658 5656 5656 5656 5657 5659 5662 5666 5668 5670 5673
5633 5633 5633 5632 5631 5630 5629 5628 5627 5627 5627 5627 5627 5627 5628 5628 5628 5629 5630 5631 5632 5633 5635 5636 5637 5638 5640 5642 5643 5644 5645 5646 5647 5651 5652 5649 5652 5653 5653 5654 5654 5655 5654 5653 5654 5653 5653 5653 5654 5655 5658 5660 5662 5664
5634 5634 5633 5632 5630 5629 5628 5626 5626 5625 5625 5624 5624 5623 5623 5623 5624 5624 5625 5627 5628 5629 5631 5632 5632 5634 5634 5634 5636 5636 5637 5637 5641 5644 5644 5645 5646 5647 5647 5647 5647 5648 5648 5649 5649 5649 5649 5648 5649 5649 5650 5653 5655 5657
5635 5634 5632 5630 5629 5627 5626 5625 5623 5622 5621 5620 5619 5618 5617 5617 5617 5618 5619 5620 5621 5623 5624 5625 5626 5627 5627 5627 5628 5629 5630 5631 5635 5635 5637 5638 5639 5639 5640 5640 5641 5641 5641 5642 5643 5643 5644 5644 5643 5644 5644 5645 5648 5650
5634 5633 5631 5629 5627 5625 5623 5622 5621 5619 5617 5615 5614 5613 5612 5612 5612 5612 5611 5612 5614 5615 5617 5618 5619 5620 5620 5620 5620 5620 5622 5625 5626 5628 5629 5631 5632 5632 5632 5632 5633 5633 5634 5634 5634 5636 5637 5639 5638 5638 5639 5640 5641 5643
5634 5633 5631 5629 5627 5626 5624 5622 5620 5618 5616 5614 5613 5611 5610 5609 5607 5607 5606 5605 5606 5606 5608 5610 5611 5612 5612 5612 5611 5611 5614 5616 5618 5619 5620 5621 5622 5623 5623 5624 5624 5624 5625 5626 5627 5627 5629 5630 5631 5632 5633 5634 5636 5637
5635 5634 5632 5631 5629 5627 5625 5622 5620 5617 5615 5613 5610 5608 5607 5605 5604 5603 5602 5601 5601 5601 5602 5602 5603 5605 5606 5606 5606 5606 5607 5609 5610 5612 5613 5614 5615 5616 5616 5616 5616 5617 5618 5619 5619 5621 5622 5623 5624 5624 5625 5627 5628 5630
5636 5636 5634 5633 5631 5629 5626 5624 5621 5617 5615 5612 5610 5607 5605 5604 5602 5600 5600 5599 5599 5599 5599 5599 5599 5600 5601 5602 5602 5602 5603 5604 5605 5607 5608 5609 5609 5609 5609 5610 5610 5611 5611 5612 5612 5613 5614 5615 5616 5617 5618 5619 5621 5622
5638 5637 5636 5634 5633 5630 5628 5624 5621 5618 5615 5613 5610 5608 5606 5604 5602 5600 5599 5598 5599 5599 5599 5599 5599 5599 5599 5600 5600 5601 5602 5603 5604 5604 5604 5604 5604 5606 5606 5605 5604 5604 5604 5604 5604 5604 5605 5605 5606 5607 5609 5611 5612 5614
5640 5639 5637 5635 5634 5632 5629 5625 5622 5619 5617 5614 5612 5609 5607 5605 5603 5601 5600 5599 5599 5599 5599 5599 5599 5599 5599 5599 5600 5601 5602 5601 5600 5600 5601 5602 5601 5601 5600 5600 5600 5599 5598 5597 5596 5597 5596 5596 5597 5599 5601 5602 5603 5605
5641 5640 5638 5637 5634 5633 5631 5627 5624 5621 5618 5616 5613 5611 5608 5606 5604 5603 5602 5601 5601 5600 5599 5599 5599 5599 5599 5599 5599 5599 5600 5600 5600 5599 5598 5597 5597 5597 5596 5595 5594 5593 5592 5591 5590 5590 5590 5591 5591 5592 5594 5596 5599 5600
5642 5641 5640 5638 5636 5634 5632 5630 5627 5624 5621 5618 5615 5612 5610 5608 5606 5605 5604 5603 5602 5602 5601 5601 5601 5600 5600 5600 5599 5599 5598 5598 5597 5597 5596 5595 5593 5592 5591 5590 5589 5587 5586 5585 5584 5583 5583 5584 5584 5585 5585 5587 5590 5593
5645 5644 5642 5640 5638 5636 5634 5631 5628 5625 5623 5620 5617 5615 5612 5610 5608 5607 5606 5605 5604 5604 5603 5603 5602 5602 5601 5601 5600 5600 5599 5599 5598 5597 5596 5594 5592 5590 5589 5587 5585 5584 5582 5580 5578 5577 5576 5576 5576 5576 5577 5580 5582 5586
5646 5645 5644 5642 5640 5639 5636 5634 5631 5628 5625 5623 5620 5617 5614 5612 5611 5610 5609 5608 5607 5607 5606 5606 5605 5605 5604 5603 5603 5602 5601 5601 5600 5599 5597 5595 5593 5591 5589 5587 5585 5583 5580 5578 5576 5574 5573 5571 5570 5570 5570 5572 5575 5578
5648 5647 5646 5645 5643 5641 5639 5637 5634 5631 5628 5625 5623 5619 5617 5615 5614 5613 5612 5611 5611 5610 5610 5609 5609 5607 5607 5606 5605 5605 5605 5604 5602 5601 5600 5598 5596 5594 5592 5590 5587 5585 5582 5580 5577 5575 5572 5569 5567 5566 5566 5567 5569 5571
5651 5650 5649 5648 5646 5644 5641 5639 5636 5634 5631 5628 5626 5623 5620 5618 5617 5616 5615 5615 5614 5614 5613 5613 5612 5611 5610 5610 5610 5609 5608 5607 5606 5605 5603 5601 5600 5597 5595 5593 5590 5588 5585 5583 5581 5578 5576 5573 5572 5570 5569 5569 5569 5571
5653 5652 5651 5649 5647 5645 5642 5640 5638 5636 5634 5631 5629 5626 5624 5621 5620 5619 5619 5618 5618 5618 5617 5617 5616 5615 5615 5615 5614 5613 5612 5611 5610 5608 5607 5605 5603 5601 5599 5596 5594 5592 5590 5587 5585 5583 5582 5580 5578 5576 5575 5575 5574 5574
5654 5653 5651 5650 5648 5646 5644 5642 5640 5638 5636 5634 5632 5630 5627 5626 5625 5624 5623 5622 5622 5622 5621 5621 5620 5619 5620 5619 5619 5618 5617 5616 5614 5612 5611 5609 5607 5605 5603 5601 5598 5596 5594 5592 5590 5588 5587 5585 5584 5583 5582 5582 5582 5582
5656 5655 5653 5651 5649 5648 5646 5644 5642 5640 5639 5637 5635 5634 5632 5631 5629 5628 5627 5627 5626 5626 5626 5625 5625 5624 5625 5624 5623 5622 5622 5621 5620 5618 5616 5614 5612 5610 5608 5606 5604 5601 5599 5598 5596 5594 5593 5591 5590 5589 5589 5589 5589 5589
5658 5656 5655 5653 5651 5650 5648 5646 5645 5644 5642 5640 5639 5637 5636 5635 5633 5632 5631 5631 5630 5630 5630 5630 5629 5628 5629 5629 5629 5627 5626 5625 5623 5622 5621 5619 5618 5616 5614 5612 5610 5609 5607 5605 5603 5602 5600 5599 5598 5598 5598 5597 5597 5597
5659 5658 5656 5654 5652 5650 5649 5648 5647 5646 5645 5643 5642 5640 5639 5638 5637 5636 5635 5634 5634 5634 5633 5633 5633 5633 5633 5633 5632 5631 5629 5628 5628 5626 5625 5624 5623 5622 5620 5619 5618 5616 5614 5612 5611 5609 5608 5608 5607 5606 5606 5605 5605 5606